TimeMDT,TemperatureF,Dew PointF,Humidity,Sea Level PressureIn,VisibilityMPH,Wind Direction,Wind SpeedMPH,Gust SpeedMPH,PrecipitationIn,Events,Conditions,WindDirDegrees,DateUTC
12:53 AM,37.0,26.1,65,30.01,10.0,South,8.1,-,N/A,,Clear,180,2014-04-24 06:53:00
1:53 AM,37.9,24.1,57,29.99,10.0,South,11.5,-,N/A,,Clear,190,2014-04-24 07:53:00
2:53 AM,37.9,24.1,57,29.99,10.0,SSW,11.5,-,N/A,,Clear,200,2014-04-24 08:53:00
3:53 AM,37.9,23.0,55,29.97,10.0,SSW,10.4,-,N/A,,Clear,200,2014-04-24 09:53:00
4:53 AM,36.0,23.0,59,29.98,10.0,South,8.1,-,N/A,,Clear,190,2014-04-24 10:53:00
5:53 AM,37.0,23.0,57,29.98,10.0,South,10.4,-,N/A,,Clear,180,2014-04-24 11:53:00
6:53 AM,37.0,24.1,59,29.98,10.0,Calm,Calm,-,N/A,,Clear,0,2014-04-24 12:53:00
7:53 AM,34.0,27.0,75,30.00,10.0,North,3.5,-,N/A,,Clear,10,2014-04-24 13:53:00
8:53 AM,43.0,25.0,49,29.98,10.0,SSW,12.7,-,N/A,,Overcast,200,2014-04-24 14:53:00
9:53 AM,45.0,26.1,48,29.97,10.0,SSW,10.4,-,N/A,,Overcast,210,2014-04-24 15:53:00
10:53 AM,48.0,26.1,42,29.94,10.0,SSW,13.8,-,N/A,,Overcast,210,2014-04-24 16:53:00
11:53 AM,48.9,25.0,39,29.95,10.0,SW,21.9,29.9,N/A,,Overcast,220,2014-04-24 17:53:00
12:53 PM,41.0,36.0,82,30.01,4.0,WSW,20.7,28.8,0.03,Rain,Rain,240,2014-04-24 18:53:00
1:12 PM,44.1,37.9,79,29.97,10.0,SW,20.7,29.9,0.00,Rain,Light Rain,230,2014-04-24 19:12:00
1:53 PM,43.0,37.0,80,29.98,10.0,SSW,18.4,28.8,0.01,,Overcast,210,2014-04-24 19:53:00
2:53 PM,48.0,37.0,66,29.94,10.0,SSW,23.0,31.1,N/A,,Overcast,210,2014-04-24 20:53:00
3:53 PM,48.9,36.0,61,29.92,10.0,SSW,20.7,34.5,N/A,,Mostly Cloudy,200,2014-04-24 21:53:00
4:53 PM,51.1,34.0,52,29.89,10.0,SSW,19.6,29.9,N/A,,Partly Cloudy,210,2014-04-24 22:53:00
5:53 PM,51.1,35.1,54,29.88,10.0,SSW,18.4,28.8,N/A,,Partly Cloudy,200,2014-04-24 23:53:00
6:53 PM,51.1,34.0,52,29.86,10.0,SSW,17.3,24.2,N/A,,Scattered Clouds,200,2014-04-25 00:53:00
7:53 PM,51.1,33.1,50,29.87,10.0,SSW,9.2,-,N/A,,Clear,200,2014-04-25 01:53:00
8:53 PM,50.0,34.0,54,29.86,10.0,SSW,9.2,-,N/A,,Partly Cloudy,200,2014-04-25 02:53:00
9:53 PM,48.0,33.1,56,29.87,10.0,SW,16.1,27.6,N/A,,Overcast,220,2014-04-25 03:53:00
10:53 PM,45.0,35.1,68,29.88,10.0,South,12.7,-,N/A,,Overcast,190,2014-04-25 04:53:00
11:53 PM,44.1,34.0,68,29.85,10.0,South,10.4,-,N/A,,Clear,180,2014-04-25 05:53:00